Quillayute, WA
on Thursday, November 15, 2012

Thursday
Previous Day Next Day
Daily Summary
 ActualAverageRecord
Temperature
Mean Temperature °F 44°F  
Max Temperature 53°F 50°F 62°F (1979)
Min Temperature 30°F 38°F 24°F (2000)
Degree Days
Heating Degree Days 23 21  
Month to date heating degree days 292  
Since 1 July heating degree days 1382  
Cooling Degree Days 0 0  
Month to date cooling degree days 0  
Year to date cooling degree days 19  
Moisture
Dew Point 36°F   
Average Humidity 98    
Maximum Humidity 100    
Minimum Humidity 68    
Precipitation
Precipitation 0.00 in 0.52 in 3.63 in (1983)
Month to date precipitation 7.55  
Year to date precipitation 78.58  
Wind
Wind Speed 2 mph   
Max Wind Speed 9 mph   
Max Gust Speed 10 mph   
Visibility 2 miles   
Events Fog   

Key: T is trace of precipitation, MM is missing value
Source: NWS Daily Summary
Time(PST)TemperatureDew PointHumidity Pressure Visibility Wind DirectionWind SpeedGust SpeedPrecipitationEvents Conditions
12:40 AM 35.6°F 35.6°F 100% 30.25 in 1.0 miles Calm Calm - N/A   Mist
12:53 AM 34.0°F 34.0°F 100% 30.25 in 0.8 miles ENE 3.5 mph - N/A   Mist
1:24 AM 33.8°F 33.8°F 100% 30.23 in 0.2 miles Calm Calm - N/A Fog Fog
1:42 AM 33.8°F 33.8°F 100% 30.23 in 0.5 miles Calm Calm - N/A Fog Fog
1:50 AM 33.8°F 32.0°F 93% 30.23 in 1.5 miles Calm Calm - N/A   Overcast
1:53 AM 33.1°F 32.0°F 96% 30.23 in 1.2 miles Calm Calm - N/A   Overcast
2:01 AM 33.8°F 33.8°F 100% 30.23 in 0.5 miles Calm Calm - N/A Fog Fog
2:07 AM 33.8°F 33.8°F 100% 30.23 in 1.2 miles Calm Calm - N/A   Scattered Clouds
2:09 AM 33.8°F 33.8°F 100% 30.23 in 2.5 miles Calm Calm - N/A   Scattered Clouds
2:13 AM 35.6°F 35.6°F 100% 30.23 in 1.2 miles Calm Calm - N/A   Partly Cloudy
2:15 AM 33.8°F 33.8°F 100% 30.23 in 0.8 miles Calm Calm - N/A   Mist
2:32 AM 33.8°F 33.8°F 100% 30.23 in 0.2 miles Calm Calm - N/A Fog Fog
2:53 AM 32.0°F 32.0°F 100% 30.23 in 0.2 miles Calm Calm - N/A Fog Fog
3:37 AM 33.8°F 33.8°F 100% 30.21 in 0.5 miles NE 3.5 mph - N/A Fog Fog
3:45 AM 33.8°F 33.8°F 100% 30.20 in 1.2 miles Calm Calm - N/A   Scattered Clouds
3:48 AM 33.8°F 33.8°F 100% 30.20 in 2.5 miles Calm Calm - N/A   Scattered Clouds
3:53 AM 33.8°F 33.8°F 100% 30.20 in 0.8 miles Calm Calm - N/A   Mist
4:02 AM 32.0°F 32.0°F 100% 30.19 in 0.2 miles Calm Calm - N/A Fog Fog
4:04 AM 32.0°F 32.0°F 100% 30.19 in 0.5 miles Calm Calm - N/A Fog Fog
4:10 AM 32.0°F 32.0°F 100% 30.19 in 1.5 miles Calm Calm - N/A   Clear
4:13 AM 33.8°F 32.0°F 93% 30.19 in 3.0 miles Calm Calm - N/A   Clear
4:46 AM 32.0°F 32.0°F 100% 30.18 in 0.8 miles Calm Calm - N/A   Clear
4:53 AM 32.0°F 32.0°F 100% 30.18 in 0.2 miles Calm Calm - N/A Fog Fog
4:59 AM 32.0°F 30.2°F 93% 30.18 in 1.0 miles Calm Calm - N/A   Clear
5:13 AM 30.2°F 30.2°F 100% 30.17 in 2.0 miles Calm Calm - N/A   Clear
5:21 AM 32.0°F 30.2°F 93% 30.16 in 4.0 miles Calm Calm - N/A   Partly Cloudy
5:29 AM 32.0°F 32.0°F 100% 30.16 in 1.8 miles Calm Calm - N/A   Mostly Cloudy
5:32 AM 32.0°F 32.0°F 100% 30.16 in 0.8 miles Calm Calm - N/A   Mist
5:42 AM 32.0°F 32.0°F 100% 30.16 in 0.2 miles Calm Calm - N/A Fog Fog
5:53 AM 30.9°F 30.0°F 96% 30.16 in 0.2 miles Calm Calm - N/A Fog Light Freezing Fog
6:04 AM 30.2°F 30.2°F 100% 30.15 in 1.0 miles Calm Calm - N/A   Mist
6:26 AM 32.0°F 32.0°F 100% 30.14 in 1.5 miles Calm Calm - N/A   Partly Cloudy
6:29 AM 32.0°F 32.0°F 100% 30.14 in 3.0 miles Calm Calm - N/A   Clear
6:53 AM 32.0°F 32.0°F 100% 30.14 in 2.0 miles Calm Calm - N/A   Clear
7:00 AM 33.8°F 32.0°F 93% 30.13 in 1.2 miles Calm Calm - N/A   Clear
7:03 AM 30.2°F 30.2°F 100% 30.13 in 2.0 miles Calm Calm - N/A   Clear
7:27 AM 32.0°F 32.0°F 100% 30.13 in 3.0 miles Calm Calm - N/A   Clear
7:30 AM 32.0°F 32.0°F 100% 30.13 in 1.8 miles Calm Calm - N/A   Clear
7:34 AM 32.0°F 32.0°F 100% 30.13 in 0.8 miles Calm Calm - N/A   Clear
7:44 AM 30.2°F 30.2°F 100% 30.12 in 0.2 miles East 3.5 mph - N/A Fog Light Freezing Fog
7:49 AM 32.0°F 32.0°F 100% 30.12 in 1.5 miles Calm Calm - N/A   Clear
7:51 AM 32.0°F 32.0°F 100% 30.12 in 3.0 miles Calm Calm - N/A   Clear
7:53 AM 32.0°F 32.0°F 100% 30.13 in 4.0 miles Calm Calm - N/A   Clear
8:53 AM 37.0°F 36.0°F 96% 30.10 in 5.0 miles NE 3.5 mph - N/A   Clear
9:53 AM 42.1°F 41.0°F 96% 30.09 in 6.0 miles Calm Calm - N/A   Clear
10:53 AM 46.9°F 44.1°F 90% 30.07 in 6.0 miles Calm Calm - N/A   Clear
11:53 AM 50.0°F 44.1°F 80% 30.04 in 6.0 miles Variable 3.5 mph - N/A   Haze
12:53 PM 51.1°F 41.0°F 68% 30.02 in 5.0 miles Calm Calm - N/A   Haze
1:53 PM 52.0°F 45.0°F 77% 30.01 in 5.0 miles Variable 3.5 mph - N/A   Haze
2:53 PM 51.1°F 45.0°F 80% 29.99 in 5.0 miles SW 8.1 mph - N/A   Haze
3:53 PM 46.9°F 44.1°F 90% 29.98 in 5.0 miles West 4.6 mph - N/A   Clear
4:53 PM 43.0°F 42.1°F 97% 29.96 in 4.0 miles Calm Calm - N/A   Clear
5:11 PM 41.0°F 39.2°F 93% 29.95 in 1.8 miles Calm Calm - N/A   Clear
5:18 PM 39.2°F 39.2°F 100% 29.95 in 1.2 miles Calm Calm - N/A   Clear
5:21 PM 39.2°F 39.2°F 100% 29.95 in 2.0 miles Calm Calm - N/A   Clear
5:24 PM 39.2°F 39.2°F 100% 29.95 in 5.0 miles Calm Calm - N/A   Partly Cloudy
5:28 PM 39.2°F 39.2°F 100% 29.95 in 1.0 miles Calm Calm - N/A   Mist
5:35 PM 39.2°F 39.2°F 100% 29.95 in 0.5 miles Calm Calm - N/A Fog Fog
5:40 PM 39.2°F 39.2°F 100% 29.95 in 1.2 miles Calm Calm - N/A   Partly Cloudy
5:45 PM 39.2°F 39.2°F 100% 29.94 in 0.8 miles Calm Calm - N/A   Mist
5:53 PM 39.9°F 39.9°F 100% 29.95 in 0.8 miles Calm Calm - N/A   Mist
5:56 PM 39.2°F 39.2°F 100% 29.94 in 1.2 miles Calm Calm - N/A   Partly Cloudy
6:01 PM 39.2°F 39.2°F 100% 29.94 in 2.0 miles Calm Calm - N/A   Partly Cloudy
6:08 PM 39.2°F 39.2°F 100% 29.94 in 4.0 miles Calm Calm - N/A   Partly Cloudy
6:19 PM 39.2°F 39.2°F 100% 29.94 in 1.8 miles Calm Calm - N/A   Scattered Clouds
6:27 PM 41.0°F 41.0°F 100% 29.94 in 2.0 miles Calm Calm - N/A   Scattered Clouds
6:32 PM 39.2°F 39.2°F 100% 29.95 in 1.2 miles Calm Calm - N/A   Scattered Clouds
6:37 PM 39.2°F 39.2°F 100% 29.95 in 0.8 miles Calm Calm - N/A   Mist
6:46 PM 39.2°F 39.2°F 100% 29.95 in 1.2 miles Calm Calm - N/A   Partly Cloudy
6:48 PM 39.2°F 39.2°F 100% 29.95 in 2.5 miles Calm Calm - N/A   Clear
6:50 PM 39.2°F 39.2°F 100% 29.95 in 1.2 miles Calm Calm - N/A   Clear
6:53 PM 39.0°F 39.0°F 100% 29.95 in 1.0 miles Calm Calm - N/A   Clear
7:22 PM 37.4°F 37.4°F 100% 29.95 in 2.0 miles Calm Calm - N/A   Partly Cloudy
7:38 PM 37.4°F 35.6°F 93% 29.94 in 1.8 miles ENE 3.5 mph - N/A   Mostly Cloudy
7:48 PM 39.2°F 39.2°F 100% 29.94 in 3.0 miles Calm Calm - N/A   Mostly Cloudy
7:49 PM 39.0°F 39.0°F 100% 29.95 in 3.0 miles Calm Calm - N/A   Mostly Cloudy
7:52 PM 39.2°F 39.2°F 100% 29.94 in 1.5 miles Calm Calm - N/A   Overcast
7:54 PM 39.2°F 39.2°F 100% 29.95 in 0.8 miles Calm Calm - N/A   Overcast
7:59 PM 37.4°F 37.4°F 100% 29.94 in 0.2 miles NE 3.5 mph - N/A Fog Fog
8:35 PM 37.4°F 37.4°F 100% 29.93 in 0.5 miles East 3.5 mph - N/A Fog Fog
8:51 PM 39.2°F 39.2°F 100% 29.94 in 0.2 miles ENE 4.6 mph - N/A Fog Fog
8:53 PM 39.0°F 39.0°F 100% 29.94 in 0.2 miles ENE 5.8 mph - N/A Fog Fog
9:14 PM 39.2°F 39.2°F 100% 29.93 in 0.2 miles East 3.5 mph - N/A Fog Fog
9:32 PM 39.2°F 39.2°F 100% 29.92 in 1.0 miles ENE 3.5 mph - N/A   Overcast
9:43 PM 39.2°F 39.2°F 100% 29.92 in 0.5 miles East 3.5 mph - N/A Fog Fog
9:53 PM 39.0°F 39.0°F 100% 29.93 in 0.5 miles ESE 3.5 mph - N/A Fog Fog
10:09 PM 39.2°F 39.2°F 100% 29.92 in 1.5 miles Calm Calm - N/A   Overcast
10:13 PM 39.2°F 39.2°F 100% 29.92 in 3.0 miles East 3.5 mph - N/A   Overcast
10:32 PM 39.2°F 39.2°F 100% 29.92 in 3.0 miles East 3.5 mph - N/A   Overcast
10:53 PM 39.0°F 39.0°F 100% 29.92 in 3.0 miles Calm Calm - N/A   Overcast
11:53 PM 39.9°F 39.9°F 100% 29.92 in 4.0 miles East 3.5 mph - N/A   Overcast
Moon Phase
Nov. 15 Nov. 20 Nov. 28 Dec. 06 Dec. 13
Sunrise:07:25 AM (PST) Moon Rise:09:32 AM (PST)11/15
Sunset:04:40 PM (PST) Moon Set:06:32 PM (PST)11/15

Copyright © 2014 The Weather Underground, Inc.